Location: Sweet Grass
(48.9965°N, 111.9649°W)
Time: 08:38:47
(UTC+00:00)

DELFI C3 - Visible Passes

Search period start: 01 April 2023 00:00
Search period end: 11 April 2023 00:00
Orbit: 475 x 487 km, 97.3° (Epoch: 31 March)

Date Brightness Start Highest point End Pass type
(mag) Time Alt. Az. Time Alt. Az. Time Alt. Az.
01 Apr ? 03:07:10 10° WSW 03:08:35 12° W 03:10:01 10° WNW visible
02 Apr ? 02:40:00 10° SSW 02:42:50 22° W 02:45:41 10° NW visible
05 Apr ? 02:56:46 10° SW 02:58:54 15° W 03:01:04 10° NW visible
08 Apr ? 03:13:06 10° W 03:13:47 10° W 03:14:28 10° WNW visible
09 Apr ? 02:44:23 10° SW 02:47:04 20° W 02:49:47 10° NW visible
